Regional Weather Roundup
Issued by NWS

Home | Current Version | Previous Version | Graphics & Text | Print | Product List | Glossary On
Versions: 1 2 3 4 5 6 7 8 9 10 11 12 13 14 15 16 17 18 19 20 21 22 23 24 25 26 27 28 29 30 31 32 33 34 35 36 37 38 39 40 41 42 43 44 45 46 47 48 49 50
000
ASUS43 KMKX 162200
RWRWI

WISCONSIN REGIONAL WEATHER ROUNDUP
NATIONAL WEATHER SERVICE MILWAUKEE/SULLIVAN WI
500 PM CDT WED APR 16 2014

NOTE: "FAIR" INDICATES FEW OR NO CLOUDS BELOW 12,000 FEET WITH NO
SIGNIFICANT WEATHER AND/OR OBSTRUCTIONS TO VISIBILITY.

WIZ001-002-006>008-014>016-023>028-162300-
NORTHWEST WISCONSIN

CITY           SKY/WX    TMP DP  RH WIND       PRES   REMARKS
SUPERIOR ARPT  SNOW      28  26  96 NE18G25   30.14S VSB 1/2 WCI  15
ASHLAND        SNOW      27  26  96 NE21      30.15S VSB 1/4 WCI  13
HAYWARD        SNOW      29  27  92 NE12      30.04S VSB 1/4 WCI  19
SIREN          LGT SNOW  30  29  94 NE9       30.00F VSB 3/4 WCI  22
RICE LAKE      CLOUDY    37  27  68 E13G21    29.97F WCI  29
LADYSMITH      CLOUDY    36  28  74 E12       30.02S WCI  28
EAU CLAIRE     NOT AVBL
MENOMONIE      CLOUDY    42  31  66 NE15G21   29.89F
NEW RICHMOND   CLOUDY    36  29  77 NE14G21   29.90F WCI  27
OSCEOLA        LGT SNOW  33  32  94 NE13      29.96F WCI  24
$$

WIZ003>005-009-010-017-018-162300-
NORTH CENTRAL WISCONSIN

CITY           SKY/WX    TMP DP  RH WIND       PRES   REMARKS
WOODRUFF       LGT SNOW  32  27  81 SE13G20   30.06F WCI  22
RHINELANDER    CLOUDY    30  25  81 E17G24    30.08F WCI  18
EAGLE RIVER    LGT SNOW  30  25  81 SE13G18   30.09F WCI  20
LAND O LAKES   LGT SNOW  30  26  85 SE12G17   30.10F WCI  20
PHILLIPS       CLOUDY    32  26  80 E13G26    30.03F WCI  22
TOMAHAWK       CLOUDY    32  27  81 CALM      30.06S
MEDFORD        CLOUDY    36  28  73 E13       29.99F WCI  27
MERRILL        CLOUDY    35  28  78 CALM      30.04F
$$

WIZ029-030-035-036-043>047-162300-
CENTRAL WISCONSIN

CITY           SKY/WX    TMP DP  RH WIND       PRES   REMARKS
WAUSAU         CLOUDY    38  28  67 SE16      30.03F WCI  29
MOSINEE        SUNNY     37  28  70 E12G20    30.05S WCI  30
MARSHFIELD     CLOUDY    44  30  57 SE20G28   29.97F
STEVENS POINT  CLOUDY    38  28  68 E14G20    30.03F WCI  30
WAUPACA        CLOUDY    43  28  56 E24G30    30.09F
WAUTOMA        NOT AVBL
WISC RAPIDS    CLOUDY    45  29  53 SE12G25   30.02S
CAMP DOUGLAS   NOT AVBL
$$

WIZ011>013-019>022-031-037>040-048>050-162300-
NORTHEAST WISCONSIN

CITY           SKY/WX    TMP DP  RH WIND       PRES   REMARKS
ANTIGO         CLOUDY    32  27  83 SE20G25   30.08F WCI  20
STURGEON BAY   CLOUDY    37  19  48 SE16G22   30.24S WCI  28
GREEN BAY      CLOUDY    37  26  64 SE13      30.19F WCI  29
MANITOWOC      NOT AVBL
APPLETON       PTSUNNY   39  27  60 SE18G28   30.14S WCI  30
CLINTONVILLE   CLOUDY    41  30  65 SE13G24   30.13S
OSHKOSH        CLOUDY    41  27  57 SE18G29   30.11F
$$

WIZ032>034-041-042-053>061-162300-
SOUTHWEST WISCONSIN

CITY           SKY/WX    TMP DP  RH WIND       PRES   REMARKS
LA CROSSE      CLOUDY    54  28  36 S10       29.90R
SPARTA         CLOUDY    51  26  37 SE15G28   29.94F
VIROQUA        FAIR      50  29  44 SE22G35   29.91F
BOSCOBEL       CLOUDY    55  26  32 VRB5      29.95F
PRAIRIE DU CHI CLOUDY    55  25  32 SE15G24   29.91F
PLATTEVILLE    FAIR      51  29  42 SE24G30   29.97F
$$

WIZ056-057-062-063-064-067-068-162300-
SOUTH CENTRAL WISCONSIN

CITY           SKY/WX    TMP DP  RH WIND       PRES   REMARKS
BARABOO/DELLS  PTSUNNY   49  29  46 S23G35    30.00F
LONE ROCK      NOT AVBL
WATERTOWN      PTSUNNY   49  28  43 SE17G25   30.09F
MADISON        CLOUDY    51  30  44 S28G36    30.04F
MIDDLETON      FAIR      53  28  39 S23G32    30.03F
MONROE         MOSUNNY   52  31  44 S29G35    30.03F
JANESVILLE     MOSUNNY   54  25  32 S23G32    30.08F
$$

WIZ051-052-058>065-066-070>072-162300-
SOUTHEAST WISCONSIN

CITY           SKY/WX    TMP DP  RH WIND       PRES   REMARKS
MILWAUKEE      PTSUNNY   42  26  53 SE24G33   30.17F
WAUKESHA       MOSUNNY   45  27  49 SE20G28   30.13F
MILWAUKEE/TIMM SUNNY     45  21  39 SE22G32   30.16F
RACINE         MOSUNNY   43  27  53 SE21G28   30.18F
BURLINGTON     MOSUNNY   50  26  38 S20G26    30.12F
KENOSHA        MOSUNNY   46  26  45 SE22G31   30.15F
FOND DU LAC    CLOUDY    43  28  55 SE24G30   30.11F
SHEBOYGAN      CLOUDY    38  24  57 SE14G29   30.19F WCI  30
WEST BEND      CLOUDY    43  23  45 SE14G25   30.14F
JUNEAU         CLOUDY    47  26  43 SE17G24   30.10F
$$

LSZ147-162-162300-
LAKE SUPERIOR

STATION/POSITION TIME  TEMP    WIND        PRES    WAVE
                       AIR SEA DIR/SP/G            HT/PER
                 (UTC) (F)     (DEG/KT/KT) (MB)    (FT/S)
DEVILS ISLAND    2100   28      70/ 21/ 23 1023.8R
PORT WING        2100   28      40/ 22/ 25 1021.0
SAXON HARBOR     2140           50/ 17/ 20 1020.7F
$$

LMZ867-665-643>646-162300-
LAKE MICHIGAN

STATION/POSITION TIME  TEMP    WIND        PRES    WAVE
                       AIR SEA DIR/SP/G            HT/PER
                 (UTC) (F)     (DEG/KT/KT) (MB)    (FT/S)
NORTHPORT PIER   2120   31     110/ 19/ 23 1025.4F
SISTER BAY       2108   33     150/ 16/ 24   N/A
SHEBOYGAN LAKESH 2100   37     130/ 24/ 27 1023.5F
PORT WASHINGTON  2100   39     140/ 16/ 21 1022.7F
MILWAUKEE LAKESH 2100   38     130/ 19/ 21   N/A
KENOSHA   LAKESH 2100   40     130/ 21/ 23   N/A
$$

TC  - TEMPERATURE IN CELSIUS
VSB - VISIBILITY IN STATUTE MILES
WCI - WIND CHILL INDEX
HX  - HEAT INDEX




USA.gov is the U.S. government's official web portal to all federal, state and local government web resources and services.